Voltar ao catálogo

STARLINK-5885

AtivoComunicaçõesSSO
NORAD 56352·PAYLOAD·🇺🇸 United States

Lançado Apr 27, 2023 de Vandenberg Space Force Base

Loading…

Próximas Passagens (próximas 24 horas)

TLE

AtualizadoSource: CelesTrak SupGP

Época: Sep 15, 2026, 03:11 UTC

1 56352C 23058AM  26258.13312500  .00640500  00000+0  35861-1 0  2583
2 56352  97.2852 252.2341 0001528  85.6763 155.8513 15.13196608    15

Acompanhe STARLINK-5885 em tempo real com AllMySat

Download on the App Store